• In Uzbekistan
  • List of Countries
  • For 7 days
  • Water Temperature
  • Satellite Maps
  • Weather Map
  • Weather Widgets
  • user-avatar
    Login

    Hourly Weather Bari

    Today, 22 October, Sunday

    Time Temperature Precipitation Wind Pressure Humidity
    00:00 +29°C° 0 mm 1 mps 737 mmHg 29%
    01:00 +29°C° 0 mm 1 mps 737 mmHg 30%
    02:00 +28°C° 0 mm 1 mps 736 mmHg 31%
    03:00 +28°C° 0 mm 1 mps 737 mmHg 31%
    04:00 +27°C° 0 mm 1 mps 737 mmHg 31%
    05:00 +27°C° 0 mm 1 mps 737 mmHg 32%
    06:00 +28°C° 0 mm 1 mps 737 mmHg 31%
    07:00 +29°C° 0 mm 2 mps 737 mmHg 30%
    08:00 +30°C° 0 mm 2 mps 738 mmHg 29%
    09:00 +33°C° 0 mm 3 mps 738 mmHg 25%
    10:00 +36°C° 0 mm 3 mps 738 mmHg 21%
    11:00 +38°C° 0 mm 3 mps 738 mmHg 16%
    12:00 +38°C° 0 mm 4 mps 737 mmHg 15%
    13:00 +40°C° 0 mm 4 mps 737 mmHg 14%
    14:00 +40°C° 0 mm 4 mps 736 mmHg 13%
    15:00 +38°C° 0 mm 4 mps 736 mmHg 16%
    16:00 +36°C° 0 mm 3 mps 736 mmHg 19%
    17:00 +35°C° 0 mm 2 mps 736 mmHg 21%
    18:00 +34°C° 0 mm 3 mps 736 mmHg 21%
    19:00 +33°C° 0 mm 3 mps 736 mmHg 22%
    20:00 +31°C° 0 mm 3 mps 737 mmHg 22%
    21:00 +30°C° 0 mm 3 mps 737 mmHg 22%
    22:00 +30°C° 0 mm 4 mps 737 mmHg 22%
    23:00 +29°C° 0 mm 4 mps 737 mmHg 23%

    Tomorrow, 23 October, Monday

    Time Temperature Precipitation Wind Pressure Humidity
    00:00 +28°C° 0 mm 4 mps 737 mmHg 23%
    01:00 +28°C° 0 mm 3 mps 737 mmHg 23%
    02:00 +27°C° 0 mm 3 mps 737 mmHg 23%
    03:00 +27°C° 0 mm 3 mps 738 mmHg 24%
    04:00 +26°C° 0 mm 3 mps 738 mmHg 24%
    05:00 +26°C° 0 mm 3 mps 738 mmHg 25%
    06:00 +26°C° 0 mm 3 mps 738 mmHg 25%
    07:00 +27°C° 0 mm 2 mps 739 mmHg 25%
    08:00 +28°C° 0 mm 2 mps 739 mmHg 26%
    09:00 +30°C° 0 mm 2 mps 739 mmHg 23%
    10:00 +32°C° 0 mm 2 mps 740 mmHg 21%
    11:00 +35°C° 0 mm 2 mps 740 mmHg 18%
    12:00 +36°C° 0 mm 2 mps 739 mmHg 16%
    13:00 +37°C° 0 mm 2 mps 739 mmHg 14%
    14:00 +38°C° 0 mm 3 mps 738 mmHg 12%
    15:00 +36°C° 0 mm 2 mps 738 mmHg 14%
    16:00 +35°C° 0 mm 2 mps 738 mmHg 17%
    17:00 +32°C° 0 mm 2 mps 738 mmHg 19%
    18:00 +31°C° 0 mm 1 mps 739 mmHg 20%
    19:00 +30°C° 0 mm 1 mps 739 mmHg 21%
    20:00 +29°C° 0 mm 1 mps 740 mmHg 22%
    21:00 +29°C° 0 mm 1 mps 740 mmHg 23%
    22:00 +28°C° 0 mm 1 mps 740 mmHg 23%
    23:00 +28°C° 0 mm 1 mps 740 mmHg 23%

    Day after tomorrow, 24 October, Tuesday

    Time Temperature Precipitation Wind Pressure Humidity
    00:00 +27°C° 0 mm 1 mps 740 mmHg 23%
    01:00 +27°C° 0 mm 1 mps 740 mmHg 23%
    02:00 +26°C° 0 mm 2 mps 740 mmHg 23%
    03:00 +26°C° 0 mm 2 mps 740 mmHg 23%
    04:00 +26°C° 0 mm 2 mps 740 mmHg 23%
    05:00 +25°C° 0 mm 2 mps 740 mmHg 23%
    06:00 +26°C° 0 mm 2 mps 741 mmHg 22%
    07:00 +27°C° 0 mm 2 mps 741 mmHg 22%
    08:00 +28°C° 0 mm 2 mps 742 mmHg 21%
    09:00 +31°C° 0 mm 3 mps 742 mmHg 18%
    10:00 +34°C° 0 mm 3 mps 742 mmHg 15%
    11:00 +37°C° 0 mm 3 mps 742 mmHg 12%
    12:00 +37°C° 0 mm 3 mps 741 mmHg 10%
    13:00 +38°C° 0 mm 3 mps 741 mmHg 9%
    14:00 +39°C° 0 mm 3 mps 740 mmHg 8%
    15:00 +37°C° 0 mm 3 mps 740 mmHg 10%
    16:00 +35°C° 0 mm 2 mps 740 mmHg 12%
    17:00 +32°C° 0 mm 1 mps 740 mmHg 14%
    18:00 +31°C° 0 mm 1 mps 740 mmHg 14%
    19:00 +30°C° 0 mm 1 mps 741 mmHg 15%
    20:00 +29°C° 0 mm 1 mps 741 mmHg 15%
    21:00 +28°C° 0 mm 2 mps 741 mmHg 16%
    22:00 +28°C° 0 mm 2 mps 741 mmHg 16%
    23:00 +27°C° 0 mm 2 mps 741 mmHg 17%

    25 October, Wednesday

    Time Temperature Precipitation Wind Pressure Humidity
    00:00 +27°C° 0 mm 2 mps 741 mmHg 17%
    01:00 +26°C° 0 mm 2 mps 741 mmHg 17%
    02:00 +26°C° 0 mm 2 mps 741 mmHg 18%
    03:00 +25°C° 0 mm 2 mps 741 mmHg 18%
    04:00 +25°C° 0 mm 2 mps 741 mmHg 18%
    05:00 +25°C° 0 mm 2 mps 741 mmHg 19%
    06:00 +26°C° 0 mm 2 mps 742 mmHg 19%
    07:00 +27°C° 0 mm 2 mps 742 mmHg 19%
    08:00 +28°C° 0 mm 2 mps 743 mmHg 19%
    09:00 +30°C° 0 mm 2 mps 743 mmHg 17%
    10:00 +34°C° 0 mm 2 mps 743 mmHg 14%
    11:00 +36°C° 0 mm 2 mps 743 mmHg 12%
    12:00 +36°C° 0 mm 2 mps 742 mmHg 11%
    13:00 +37°C° 0 mm 2 mps 742 mmHg 10%
    14:00 +38°C° 0 mm 2 mps 741 mmHg 9%
    15:00 +36°C° 0 mm 2 mps 741 mmHg 12%
    16:00 +34°C° 0 mm 2 mps 741 mmHg 14%
    17:00 +32°C° 0 mm 1 mps 741 mmHg 16%
    18:00 +31°C° 0 mm 1 mps 741 mmHg 17%
    19:00 +30°C° 0 mm 1 mps 742 mmHg 17%
    20:00 +28°C° 0 mm 2 mps 742 mmHg 18%
    21:00 +28°C° 0 mm 1 mps 742 mmHg 19%
    22:00 +27°C° 0 mm 1 mps 742 mmHg 20%
    23:00 +27°C° 0 mm 1 mps 742 mmHg 21%

    26 October, Thursday

    Time Temperature Precipitation Wind Pressure Humidity
    00:00 +26°C° 0 mm 1 mps 742 mmHg 22%
    01:00 +26°C° 0 mm 1 mps 741 mmHg 23%
    02:00 +25°C° 0 mm 1 mps 741 mmHg 24%
    03:00 +25°C° 0 mm 1 mps 741 mmHg 25%
    04:00 +24°C° 0 mm 1 mps 741 mmHg 25%
    05:00 +24°C° 0 mm 1 mps 741 mmHg 26%
    06:00 +25°C° 0 mm 1 mps 742 mmHg 25%
    07:00 +26°C° 0 mm 1 mps 743 mmHg 25%
    08:00 +27°C° 0 mm 2 mps 743 mmHg 24%
    09:00 +30°C° 0 mm 2 mps 743 mmHg 21%
    10:00 +32°C° 0 mm 2 mps 743 mmHg 18%
    11:00 +35°C° 0 mm 2 mps 743 mmHg 15%
    12:00 +36°C° 0 mm 2 mps 742 mmHg 14%
    13:00 +36°C° 0 mm 1 mps 742 mmHg 13%
    14:00 +36°C° 0 mm 1 mps 741 mmHg 11%
    15:00 +35°C° 0 mm 1 mps 741 mmHg 14%
    16:00 +33°C° 0 mm 1 mps 741 mmHg 16%
    17:00 +32°C° 0 mm 1 mps 741 mmHg 19%
    18:00 +31°C° 0 mm 2 mps 741 mmHg 19%
    19:00 +30°C° 0 mm 2 mps 741 mmHg 20%
    20:00 +29°C° 0 mm 2 mps 742 mmHg 20%
    21:00 +28°C° 0 mm 2 mps 742 mmHg 21%
    22:00 +28°C° 0 mm 2 mps 742 mmHg 22%
    23:00 +27°C° 0 mm 2 mps 742 mmHg 24%

    27 October, Friday

    Time Temperature Precipitation Wind Pressure Humidity
    00:00 +27°C° 0 mm 2 mps 741 mmHg 24%
    01:00 +26°C° 0 mm 2 mps 741 mmHg 25%
    02:00 +26°C° 0 mm 2 mps 741 mmHg 25%
    03:00 +25°C° 0 mm 2 mps 741 mmHg 26%
    04:00 +25°C° 0 mm 2 mps 741 mmHg 26%
    05:00 +25°C° 0 mm 2 mps 741 mmHg 26%
    06:00 +26°C° 0 mm 2 mps 741 mmHg 26%
    07:00 +27°C° 0 mm 2 mps 742 mmHg 25%
    08:00 +28°C° 0 mm 2 mps 742 mmHg 25%
    09:00 +30°C° 0 mm 2 mps 742 mmHg 23%
    10:00 +33°C° 0 mm 3 mps 742 mmHg 21%
    11:00 +36°C° 0 mm 3 mps 742 mmHg 19%
    12:00 +37°C° 0 mm 3 mps 741 mmHg 19%
    13:00 +37°C° 0 mm 3 mps 740 mmHg 18%
    14:00 +38°C° 0 mm 3 mps 740 mmHg 17%
    15:00 +37°C° 0 mm 3 mps 740 mmHg 20%
    16:00 +35°C° 0 mm 2 mps 740 mmHg 22%
    17:00 +34°C° 0 mm 2 mps 740 mmHg 25%
    18:00 +32°C° 0 mm 2 mps 740 mmHg 26%
    19:00 +31°C° 0 mm 2 mps 740 mmHg 27%
    20:00 +31°C° 0 mm 2 mps 741 mmHg 28%
    21:00 +30°C° 0 mm 2 mps 741 mmHg 28%
    22:00 +30°C° 0 mm 2 mps 741 mmHg 29%
    23:00 +30°C° 0 mm 2 mps 740 mmHg 29%
    Show more